Weather in Bolgatanga

Ghana     10°47′31″N   0°51′31″E
temp.,
°C
wind,
m/s
gust,
m/s
humid.,
%
clouds,
%
prec.,
mm/h
press.,
hPa
HPBL,
m
15 august, mon
mon1500:00+22ssw2297100 0.0 101053
03:00+23ssw2697100 0.0 1009229
06:00+22s2796100 0.0 1009282
09:00+23sw3893100 0.5 1011407
12:00+25ssw3581100 0.6 1010510
15:00+25s4682100 0.0 1007454
18:00+24s278687 0.1 1008374
21:00+23s259093 0.1 1010162
16 august, tue
tue1600:00+23s2890100 0.1 1010275
03:00+24s4108672 0.0 1009566
06:00+23ssw41091100 0.0 1010692
09:00+24ssw498685 0.3 1012781
12:00+25ssw588060 0.8 1012859
15:00+26sw587746 0.9 1010869
18:00+24ssw268530 1.4 1010392
21:00+23ssw269265 1.1 1013249
17 august, wed
wed1700:00+22ssw289293 1.1 1013283
03:00+21ssw299789 0.2 1012372
06:00+21ssw289691 0.2 1013350
09:00+25sw477659 0.0 1014812
12:00+28sw456170 0.2 10121357
15:00+30sw445490 0.2 10101653
18:00+27s367158 0.3 1011276
21:00+25s258082 0.1 1013134
18 august, thu
thu1800:00+24ssw258474 0.1 1013148
03:00+23sw278989 0.0 1012234
06:00+22sw239159 0.0 1014106
09:00+27sw346931 0.0 1015843
12:00+31wsw335487 0.1 10121691
15:00+30wsw245696 0.1 10091252
18:00+27ssw236998 0.1 101099
21:00+26sw227592 0.1 101225
19 august, fri
fri1900:00+24wsw0191100 4.5 101137
03:00+23wsw2695100 1.8 1010219
06:00+23sw3795100 2.3 1011210
09:00+24ssw3788100 2.9 1012330
12:00+24ssw3790100 10.4 1012360
15:00+22w1397100 13.1 1010309
18:00+22sse1298100 19.8 1010215
21:00+21s2798100 1.7 1011324